EW9596 Weather Reports


time (UTC)temp
C
wind
direction
speed
KPH
gust
KPH
rain 1hr
cm
rain 24hr
cm
rain mn
cm
humidity
%
barometer
mb
20260507040539 7 215 0.0 0.0 0.00 0.43 0.00 88 1011.9
20260507040038 7 215 0.0 0.0 0.00 0.43 0.00 88 1011.8
20260507035537 7 215 0.0 0.0 0.00 0.43 0.43 88 1011.9
20260507035038 7 215 0.0 0.0 0.00 0.43 0.43 88 1012.1
20260507034538 7 215 0.0 0.0 0.00 0.43 0.43 88 1011.9
20260507034037 7 215 0.0 0.0 0.00 0.43 0.43 88 1011.7
20260507033537 7 215 0.0 0.0 0.00 0.43 0.43 88 1011.9
20260507033036 7 215 0.0 0.0 0.00 0.43 0.43 88 1011.6
20260507032536 7 215 0.0 0.0 0.00 0.43 0.43 88 1011.4
20260507032039 7 215 0.0 0.0 0.00 0.43 0.43 88 1011.7
20260507031536 7 215 0.0 0.0 0.00 0.43 0.43 88 1011.9
20260507031036 7 215 0.0 0.0 0.00 0.43 0.43 88 1011.8
20260507030535 7 215 0.0 0.0 0.00 0.43 0.43 88 1012.0
20260507030037 7 215 0.0 0.0 0.00 0.43 0.43 88 1011.8
20260507025537 7 215 0.0 0.0 0.00 0.43 0.43 88 1011.7
20260507025039 7 215 0.0 0.0 0.00 0.43 0.43 88 1012.2
20260507024535 7 215 0.0 0.0 0.00 0.43 0.43 88 1012.3
20260507024033 7 215 0.0 0.0 0.00 0.43 0.43 88 1012.3
20260507023533 7 215 0.0 0.0 0.00 0.43 0.43 88 1012.1
20260507023033 7 215 0.0 0.0 0.00 0.43 0.43 88 1012.1
20260507022533 7 215 0.0 0.0 0.00 0.43 0.43 88 1011.9
20260507022033 7 215 0.0 0.0 0.00 0.43 0.43 88 1011.8
20260507021536 7 215 0.0 0.0 0.00 0.43 0.43 88 1012.5
20260507021032 7 215 0.0 0.0 0.00 0.43 0.43 88 1012.5
20260507020531 7 215 0.0 0.0 0.00 0.43 0.43 88 1012.2
20260507020035 7 215 0.0 0.0 0.00 0.43 0.43 88 1012.5
20260507015531 7 215 0.0 0.0 0.00 0.43 0.43 88 1012.2
20260507015034 7 215 0.0 0.0 0.00 0.43 0.43 88 1012.4
20260507014531 7 215 0.0 0.0 0.00 0.43 0.43 88 1012.5
20260507014031 7 215 0.0 0.0 0.00 0.43 0.43 88 1012.3
20260507013529 7 215 0.0 0.0 0.00 0.43 0.43 88 1012.2
20260507013029 7 215 0.0 0.0 0.00 0.43 0.43 88 1012.2
20260507012532 7 215 0.0 0.0 0.00 0.43 0.43 88 1012.2
20260507012029 7 215 0.0 0.0 0.00 0.43 0.43 88 1012.4
20260507011533 8 215 0.0 0.0 0.00 0.43 0.43 88 1012.2
20260507011027 8 215 0.0 0.0 0.00 0.43 0.43 88 1012.2
20260507010527 8 215 0.0 0.0 0.00 0.43 0.43 87 1012.2
20260507010034 8 215 0.0 0.0 0.00 0.43 0.43 87 1012.1
20260507005528 8 215 0.0 0.0 0.00 0.43 0.43 87 1012.0
20260507005025 8 215 0.0 0.0 0.00 0.43 0.43 87 1012.0
20260507004526 8 215 0.0 0.0 0.00 0.43 0.43 87 1011.9
20260507004025 8 215 0.0 0.0 0.00 0.43 0.43 87 1012.0
20260507003524 8 215 0.0 0.0 0.00 0.43 0.43 87 1011.8
20260507003023 8 218 0.0 0.0 0.00 0.43 0.43 87 1011.7
20260507002522 8 218 0.0 0.0 0.00 0.43 0.43 88 1011.7
20260507002026 8 209 0.0 0.0 0.00 0.43 0.43 88 1011.7
20260507001522 8 208 0.0 0.0 0.00 0.43 0.43 88 1011.7
20260507001021 8 208 0.0 0.0 0.00 0.43 0.43 88 1011.4
20260507000521 8 227 0.0 0.0 0.00 0.43 0.43 87 1011.4
20260507000022 8 227 0.0 0.0 0.00 0.43 0.43 88 1011.4
20260506235521 8 231 0.0 0.0 0.00 0.43 0.43 87 1011.5
20260506235019 8 230 0.0 0.0 0.00 0.43 0.43 87 1011.4
20260506234520 8 232 0.0 0.0 0.00 0.43 0.43 87 1011.3
20260506234017 8 232 0.0 0.0 0.00 0.43 0.43 87 1011.3
20260506233517 8 232 0.0 0.0 0.00 0.43 0.43 87 1011.2
20260506233017 8 221 0.0 0.0 0.00 0.43 0.43 87 1011.2
20260506232516 8 223 0.0 0.0 0.00 0.43 0.43 87 1011.1
20260506232017 8 219 0.0 0.0 0.00 0.43 0.43 87 1011.0
20260506231516 8 219 0.0 0.0 0.00 0.43 0.43 88 1011.1
20260506231015 8 214 0.0 0.0 0.00 0.43 0.43 87 1011.2
20260506230513 8 234 0.0 0.0 0.00 0.43 0.43 87 1011.0
20260506230019 8 249 0.0 0.0 0.00 0.43 0.43 88 1011.0
20260506225515 8 238 0.0 0.0 0.00 0.43 0.43 88 1010.9
20260506225013 8 238 0.0 6.4 0.00 0.43 0.43 88 1010.9
20260506224512 8 271 1.6 6.4 0.00 0.43 0.43 88 1010.9
20260506224010 8 241 3.2 11.3 0.00 0.43 0.43 88 1010.8
20260506223510 8 253 0.0 11.3 0.00 0.43 0.43 88 1010.7
20260506223010 8 267 3.2 9.7 0.00 0.43 0.43 88 1010.7
20260506222509 8 270 4.8 14.5 0.00 0.43 0.43 88 1010.5
20260506222008 8 215 6.4 14.5 0.00 0.43 0.43 88 1010.4
20260506221508 8 277 1.6 12.9 0.00 0.43 0.43 88 1010.5
20260506221007 8 263 4.8 12.9 0.00 0.43 0.43 89 1010.5
20260506220507 8 288 3.2 11.3 0.00 0.43 0.43 89 1010.3
20260506220007 8 271 0.0 12.9 0.00 0.43 0.43 89 1010.3
20260506215510 8 279 3.2 12.9 0.00 0.43 0.43 89 1010.3
20260506215006 8 284 0.0 8.0 0.00 0.43 0.43 89 1010.3
20260506214505 8 286 0.0 12.9 0.00 0.43 0.43 89 1010.4
20260506214006 8 288 8.0 12.9 0.00 0.43 0.43 89 1010.4
20260506213503 8 252 1.6 16.1 0.00 0.43 0.43 89 1010.3
20260506213005 8 306 4.8 16.1 0.00 0.43 0.43 89 1010.3
20260506212502 9 212 4.8 12.9 0.00 0.43 0.43 89 1010.2
20260506212001 9 207 3.2 14.5 0.00 0.43 0.43 89 1009.9
20260506211501 9 275 4.8 16.1 0.00 0.43 0.43 89 1009.9
20260506211100 9 236 6.4 16.1 0.00 0.43 0.43 89 1009.9
20260506210600 9 252 3.2 9.7 0.00 0.43 0.43 89 1009.7
20260506210105 9 226 4.8 12.9 0.00 0.43 0.43 90 1009.5
20260506205557 9 295 0.0 8.0 0.00 0.43 0.43 90 1009.4
20260506205056 9 219 3.2 12.9 0.00 0.43 0.43 89 1009.4
20260506204606 9 261 3.2 12.9 0.00 0.43 0.43 89 1009.3
20260506204054 9 221 4.8 12.9 0.00 0.43 0.43 89 1009.2
20260506203554 9 309 4.8 16.1 0.00 0.43 0.43 89 1009.2
20260506203053 9 280 9.7 16.1 0.00 0.43 0.43 89 1009.1
20260506202552 9 241 6.4 12.9 0.00 0.43 0.43 89 1009.0
20260506202054 9 240 3.2 9.7 0.03 0.43 0.43 89 1008.8
20260506201551 9 258 4.8 9.7 0.03 0.43 0.43 89 1008.6
20260506201050 9 291 6.4 11.3 0.03 0.43 0.43 89 1008.4
20260506200550 9 267 1.6 6.4 0.03 0.43 0.43 89 1008.3
20260506200051 9 236 1.6 14.5 0.03 0.43 0.43 89 1008.3
20260506195556 9 271 6.4 14.5 0.03 0.48 0.43 89 1008.4
20260506195048 9 227 4.8 12.9 0.03 0.48 0.43 89 1008.4
20260506194549 9 223 4.8 16.1 0.03 0.48 0.43 89 1008.4
20260506194048 10 222 8.0 17.7 0.03 0.48 0.43 89 1008.5
20260506193546 10 207 9.7 17.7 0.03 0.48 0.43 89 1008.3
20260506193045 10 248 6.4 17.7 0.03 0.48 0.43 89 1008.4
20260506192545 10 249 6.4 11.3 0.03 0.48 0.43 89 1008.3
20260506192044 10 233 4.8 12.9 0.00 0.46 0.41 89 1008.1
20260506191549 10 217 4.8 12.9 0.00 0.46 0.41 89 1008.1
20260506191045 10 243 3.2 9.7 0.00 0.46 0.41 89 1008.0
20260506190542 10 217 4.8 9.7 0.00 0.46 0.41 88 1007.9
20260506190042 10 238 3.2 8.0 0.00 0.46 0.41 88 1007.9
20260506185540 10 217 0.0 9.7 0.00 0.46 0.41 88 1007.7
20260506185040 10 217 3.2 9.7 0.00 0.46 0.41 88 1007.7
20260506184542 10 205 4.8 11.3 0.00 0.46 0.41 88 1007.6
20260506184039 10 235 3.2 9.7 0.00 0.46 0.41 88 1007.6
20260506183541 10 227 0.0 8.0 0.00 0.46 0.41 88 1007.5
20260506183039 10 248 4.8 9.7 0.00 0.46 0.41 88 1007.5
20260506182537 10 200 3.2 9.7 0.00 0.46 0.41 88 1007.5
20260506182036 11 240 1.6 9.7 0.00 0.46 0.41 88 1007.4
20260506181538 11 257 4.8 9.7 0.00 0.46 0.41 88 1007.3
20260506181034 11 230 0.0 9.7 0.00 0.46 0.41 88 1007.1
20260506180534 11 229 0.0 12.9 0.00 0.46 0.41 88 1007.1
20260506180038 11 255 4.8 12.9 0.00 0.46 0.41 87 1007.1
20260506175531 11 202 4.8 12.9 0.00 0.46 0.41 87 1007.0
20260506175031 12 241 1.6 11.3 0.00 0.46 0.41 87 1006.8
20260506174534 12 256 3.2 9.7 0.00 0.46 0.41 88 1006.7
20260506174031 12 237 4.8 9.7 0.00 0.46 0.41 88 1006.5
20260506173531 12 246 3.2 11.3 0.00 0.46 0.41 88 1006.5
20260506173031 13 205 3.2 14.5 0.00 0.46 0.41 88 1006.4
20260506172529 13 261 4.8 14.5 0.00 0.46 0.41 88 1006.3
20260506172033 13 222 6.4 16.1 0.00 0.46 0.41 89 1006.3
20260506171539 14 222 8.0 16.1 0.00 0.46 0.41 89 1006.1
20260506171030 14 252 4.8 16.1 0.00 0.46 0.41 89 1006.1
20260506170532 15 219 8.0 16.1 0.00 0.46 0.41 89 1006.0
20260506170028 15 234 3.2 12.9 0.00 0.46 0.41 90 1005.9
20260506165532 15 234 3.2 11.3 0.00 0.46 0.41 90 1005.9
20260506165028 15 268 1.6 12.9 0.00 0.46 0.41 90 1005.9
20260506164627 15 247 3.2 12.9 0.00 0.46 0.41 90 1006.0
20260506164027 15 275 6.4 12.9 0.00 0.46 0.41 91 1005.9
20260506163526 15 274 4.8 11.3 0.00 0.46 0.41 91 1005.9
20260506163034 15 282 0.0 11.3 0.00 0.46 0.41 91 1005.8
20260506162530 15 245 4.8 11.3 0.00 0.46 0.41 90 1005.9
20260506162025 15 267 1.6 8.0 0.00 0.46 0.41 91 1005.9
20260506161525 15 263 1.6 6.4 0.00 0.46 0.41 91 1005.9
20260506161024 15 270 0.0 8.0 0.03 0.46 0.41 91 1005.7
20260506160523 15 235 3.2 8.0 0.03 0.46 0.41 91 1005.8
20260506160022 15 160 3.2 9.7 0.03 0.46 0.41 91 1006.0
20260506155524 15 223 0.0 11.3 0.03 0.46 0.41 91 1006.0
20260506155022 15 275 1.6 11.3 0.05 0.46 0.41 91 1005.9
20260506154524 15 257 0.0 6.4 0.05 0.46 0.41 91 1005.9
20260506154024 14 275 3.2 8.0 0.05 0.46 0.41 91 1005.9
20260506153520 14 185 0.0 14.5 0.05 0.46 0.41 90 1006.0
20260506153021 14 281 1.6 14.5 0.05 0.46 0.41 90 1005.9
20260506152520 14 337 1.6 8.0 0.08 0.46 0.41 90 1005.8
20260506152019 14 319 0.0 3.2 0.08 0.46 0.41 91 1005.9
20260506151523 14 318 0.0 4.8 0.08 0.46 0.41 90 1006.0
20260506151018 14 321 1.6 4.8 0.05 0.43 0.38 90 1006.2
20260506150518 14 192 0.0 6.4 0.05 0.43 0.38 91 1006.1
20260506150020 14 338 1.6 6.4 0.05 0.43 0.38 91 1006.0
20260506145518 14 29 0.0 0.0 0.05 0.43 0.38 90 1006.0
20260506145017 14 29 0.0 0.0 0.03 0.41 0.36 90 1005.9
20260506144517 13 29 0.0 0.0 0.03 0.41 0.36 90 1006.0
20260506144015 13 29 0.0 0.0 0.05 0.41 0.36 91 1005.8
20260506143514 13 29 0.0 0.0 0.05 0.41 0.36 90 1005.8
20260506143017 13 29 0.0 0.0 0.05 0.41 0.36 90 1005.8
20260506142513 13 30 0.0 0.0 0.05 0.38 0.33 90 1006.0
20260506142015 13 29 0.0 0.0 0.05 0.38 0.33 90 1006.0
20260506141513 13 29 0.0 0.0 0.05 0.38 0.33 90 1006.0
20260506141013 13 29 0.0 0.0 0.08 0.38 0.33 90 1006.0
20260506140513 12 30 0.0 0.0 0.08 0.38 0.33 90 1006.0
20260506140017 12 29 0.0 0.0 0.10 0.38 0.33 90 1006.1
20260506135513 12 29 0.0 0.0 0.13 0.38 0.33 90 1006.1
20260506135010 12 29 0.0 0.0 0.15 0.38 0.33 89 1006.2
20260506134510 12 29 0.0 0.0 0.18 0.38 0.33 89 1006.2
20260506134011 12 29 0.0 0.0 0.18 0.36 0.30 89 1006.2
20260506133509 12 29 0.0 0.0 0.20 0.36 0.30 89 1006.3
20260506133010 12 29 0.0 0.0 0.23 0.36 0.30 89 1006.4
20260506132513 12 29 0.0 0.0 0.23 0.33 0.28 89 1006.5
20260506132006 12 30 0.0 0.0 0.25 0.33 0.28 89 1006.7
20260506131508 12 29 0.0 0.0 0.25 0.33 0.28 88 1006.7
20260506131006 12 29 0.0 0.0 0.23 0.30 0.25 88 1006.9
20260506130506 12 29 0.0 0.0 0.23 0.28 0.23 88 1006.9
20260506130007 12 29 0.0 0.0 0.23 0.28 0.23 88 1007.0
20260506125505 12 29 0.0 0.0 0.20 0.28 0.20 88 1007.0
20260506125005 12 29 0.0 0.0 0.18 0.25 0.18 88 1006.9
20260506124507 12 28 0.0 0.0 0.15 0.23 0.15 88 1007.0
20260506124004 12 28 0.0 0.0 0.13 0.20 0.13 88 1007.0
20260506123504 12 28 0.0 0.0 0.10 0.18 0.10 88 1006.8
20260506123006 12 28 0.0 0.0 0.08 0.15 0.08 88 1006.6
20260506122503 12 28 0.0 0.0 0.05 0.13 0.05 88 1006.7
20260506122004 12 28 0.0 0.0 0.03 0.10 0.03 88 1006.7
20260506121503 12 28 0.0 0.0 0.03 0.10 0.03 88 1006.7
20260506121002 12 28 0.0 0.0 0.03 0.10 0.03 88 1006.6
20260506120503 12 28 0.0 0.0 0.00 0.08 0.00 88 1006.5
20260506120003 12 29 0.0 0.0 0.00 0.08 0.00 88 1006.5
20260506115502 11 82 0.0 0.0 0.00 0.10 0.00 87 1006.5
20260506115002 11 82 0.0 0.0 0.00 0.10 0.00 87 1006.6
20260506114505 11 82 0.0 0.0 0.00 0.10 0.00 87 1006.7
20260506114003 11 82 0.0 0.0 0.00 0.10 0.00 87 1006.9
20260506113600 11 82 0.0 0.0 0.00 0.10 0.00 87 1007.2
20260506113100 11 82 0.0 0.0 0.00 0.10 0.00 87 1007.0
20260506112559 11 82 0.0 0.0 0.00 0.10 0.00 87 1007.1
20260506112058 11 82 0.0 0.0 0.00 0.10 0.00 87 1007.0
20260506111559 11 82 0.0 0.0 0.00 0.10 0.00 87 1007.1
20260506111100 11 82 0.0 0.0 0.00 0.10 0.00 87 1007.1
20260506110559 11 82 0.0 0.0 0.00 0.10 0.00 87 1007.0
20260506110059 11 82 0.0 0.0 0.00 0.10 0.00 87 1006.9
20260506105558 11 82 0.0 0.0 0.00 0.10 0.00 87 1006.9
20260506105100 11 82 0.0 0.0 0.00 0.10 0.00 87 1007.0
20260506104605 11 82 0.0 0.0 0.00 0.10 0.00 87 1006.9
20260506104058 11 82 0.0 1.6 0.00 0.10 0.00 87 1006.9
20260506103556 11 82 0.0 1.6 0.00 0.10 0.00 86 1007.0
20260506103059 11 82 0.0 0.0 0.00 0.10 0.00 86 1007.0
20260506102559 11 82 0.0 0.0 0.00 0.10 0.00 86 1006.9
20260506102056 11 82 0.0 0.0 0.00 0.10 0.00 86 1006.8
20260506101555 11 82 0.0 0.0 0.00 0.10 0.00 85 1006.6
20260506101055 11 82 0.0 0.0 0.00 0.10 0.00 85 1006.5
20260506100555 11 82 0.0 0.0 0.00 0.10 0.00 85 1006.6
20260506100109 11 82 0.0 0.0 0.00 0.10 0.00 85 1006.5
20260506095554 11 82 0.0 0.0 0.00 0.10 0.00 85 1006.4
20260506095056 11 82 0.0 0.0 0.00 0.10 0.00 85 1006.5
20260506094554 12 82 0.0 0.0 0.00 0.10 0.00 85 1006.6
20260506094053 12 82 0.0 0.0 0.00 0.10 0.00 85 1006.6
20260506093554 12 82 0.0 0.0 0.00 0.10 0.00 85 1006.6
20260506093056 12 82 0.0 0.0 0.00 0.10 0.00 85 1006.6
20260506092553 12 82 0.0 1.6 0.00 0.10 0.00 85 1006.6
20260506092052 12 82 0.0 1.6 0.00 0.10 0.00 85 1006.7
20260506091555 12 82 0.0 0.0 0.00 0.10 0.00 85 1006.7
20260506091049 12 82 0.0 0.0 0.00 0.10 0.00 85 1006.7
20260506090550 12 82 0.0 3.2 0.00 0.10 0.00 84 1006.8
20260506090049 12 82 0.0 3.2 0.00 0.10 0.00 84 1006.8
20260506085548 12 82 0.0 0.0 0.00 0.10 0.00 84 1006.9
20260506085150 12 82 0.0 0.0 0.00 0.10 0.00 84 1006.9
20260506084548 12 82 0.0 0.0 0.00 0.10 0.00 84 1007.1
20260506084048 12 82 0.0 1.6 0.00 0.10 0.00 84 1007.1
20260506083549 12 82 0.0 1.6 0.00 0.10 0.00 84 1007.3
20260506083047 12 82 0.0 4.8 0.00 0.10 0.00 84 1007.3
20260506082546 12 82 0.0 6.4 0.00 0.10 0.00 84 1007.4
20260506082046 12 217 1.6 6.4 0.00 0.10 0.00 84 1007.5
20260506081548 12 56 0.0 0.0 0.00 0.10 0.00 83 1007.3
20260506081048 12 56 0.0 0.0 0.00 0.10 0.00 84 1007.3
20260506080546 12 56 0.0 0.0 0.00 0.10 0.00 84 1007.2
20260506073044 12 53 0.0 0.0 0.00 0.10 0.00 83 1007.2
20260506072544 12 53 0.0 0.0 0.00 0.10 0.00 83 1007.2
20260506072044 12 53 0.0 0.0 0.00 0.10 0.00 83 1007.2
20260506071549 12 61 0.0 0.0 0.00 0.10 0.00 83 1007.2
20260506071042 12 61 0.0 0.0 0.00 0.10 0.00 83 1007.1
20260506070546 12 61 0.0 0.0 0.00 0.10 0.00 83 1007.1
20260506062039 12 61 0.0 0.0 0.00 0.10 0.00 82 1007.6
20260506061535 12 61 0.0 0.0 0.00 0.10 0.00 82 1007.7
20260506061037 12 61 0.0 0.0 0.00 0.10 0.00 82 1007.8
20260506060534 12 61 0.0 0.0 0.00 0.10 0.00 82 1007.9
20260506051027 12 62 0.0 0.0 0.00 0.10 0.00 81 1008.6
20260506050526 12 62 0.0 0.0 0.00 0.10 0.00 80 1008.6
20260506045024 13 62 0.0 0.0 0.00 0.10 0.00 78 1008.8
20260506044530 13 62 0.0 0.0 0.00 0.10 0.00 78 1008.7
20260506044023 13 62 0.0 0.0 0.00 0.10 0.00 78 1008.8
20260506043523 13 62 0.0 0.0 0.00 0.10 0.00 78 1008.7
20260506043025 13 62 0.0 0.0 0.00 0.10 0.00 78 1008.8
20260506042524 13 62 0.0 0.0 0.00 0.10 0.00 78 1008.8
20260506042022 13 62 0.0 0.0 0.00 0.10 0.00 78 1008.8
20260506041521 13 62 0.0 0.0 0.00 0.10 0.00 78 1008.8
20260506041020 13 62 0.0 0.0 0.00 0.10 0.00 77 1008.8